Change the Weather History Date:

Sunday, October 10, 2010

  Actual Average Record
Temperature  
Mean Temperature 66 °F 48 °F  
Max Temperature 82 °F 59 °F 86 °F (2003)
Min Temperature 50 °F 38 °F 16 °F (1987)
Degree Days  
Heating Degree Days 0 17  
Month to date heating degree days 64 149  
Since 1 July heating degree days 332 419  
Cooling Degree Days 1 0  
Month to date cooling degree days 6 0  
Year to date cooling degree days 611 548  
Growing Degree Days 16 (Base 50)    
Moisture  
Dew Point 53 °F    
Average Humidity 66    
Maximum Humidity 89    
Minimum Humidity 42    
Precipitation  
Precipitation 0.00 in 0.07 in 1.19 in (1949)
Month to date precipitation T 0.80  
Year to date precipitation 25.09 19.43  
Snow  
Snow 0.00 in 0.00 in 2.50 in (1935)
Month to date snowfall 0.0 0.1  
Since 1 July snowfall 0.0 0.1  
Since 1 September snowfall 0.0 0.1  
Snow Depth 0.00 in    
Sea Level Pressure  
Sea Level Pressure 29.90 in    
Wind  
Wind Speed 5 mph (North)    
Max Wind Speed 12 mph    
Max Gust Speed 15 mph    
Visibility 10 miles    
Events      
T = Trace of Precipitation, MM = Missing Value Source: NWS Daily Summary

Daily Weather History Graph

Daily Weather History Graph

Search for Another Location

Airport or City:

Trip Planner

Search our weather history database for the weather conditions in past years. The results will help you decide how hot, cold, wet, or windy it might be!

Date:

Astronomy

Oct. 10, 2010 Rise Set
Actual Time 7:38 AM CDT 6:49 PM CDT
Civil Twilight 7:07 AM CDT 7:19 PM CDT
Nautical Twilight 6:32 AM CDT 7:54 PM CDT
Astronomical Twilight 5:57 AM CDT 8:30 PM CDT
Moon 11:30 AM CDT (10/10) 8:14 PM CDT (10/10)
Length of Visible Light 12h 12m
Length of Day
11h 11m
Waxing Crescent, 12% of the Moon is Illuminated
Oct 10
Waxing Crescent
Oct 14
First Quarter
Oct 22
Full
Oct 30
Last Quarter
Nov 5
New

Hourly Weather History & Observations

Time (CDT) Temp. Heat Index Dew Point Humidity Pressure Visibility Wind Dir Wind Speed Gust Speed Precip Events Conditions
12:53 AM 60.1 °F - 53.1 °F 78% 29.91 in 10.0 mi East 3.5 mph - N/A   Clear
1:53 AM 59.0 °F - 52.0 °F 78% 29.90 in 10.0 mi SSW 5.8 mph - N/A   Clear
2:53 AM 57.0 °F - 52.0 °F 83% 29.91 in 10.0 mi Calm Calm - N/A   Clear
3:53 AM 57.0 °F - 51.1 °F 81% 29.91 in 10.0 mi Calm Calm - N/A   Clear
4:53 AM 53.1 °F - 48.9 °F 86% 29.92 in 9.0 mi Calm Calm - N/A   Clear
5:53 AM 51.1 °F - 48.0 °F 89% 29.93 in 8.0 mi North 6.9 mph - N/A   Clear
6:53 AM 53.1 °F - 50.0 °F 89% 29.94 in 9.0 mi East 4.6 mph - N/A   Clear
7:53 AM 51.1 °F - 48.0 °F 89% 29.93 in 8.0 mi Calm Calm - N/A   Clear
8:53 AM 57.0 °F - 52.0 °F 83% 29.93 in 8.0 mi Calm Calm - N/A   Clear
9:53 AM 60.1 °F - 54.0 °F 80% 29.92 in 10.0 mi SSW 5.8 mph - N/A   Clear
10:53 AM 68.0 °F - 55.0 °F 63% 29.93 in 10.0 mi North 8.1 mph - N/A   Clear
11:53 AM 72.0 °F - 57.0 °F 59% 29.92 in 10.0 mi North 6.9 mph - N/A   Clear
12:53 PM 75.0 °F - 55.9 °F 51% 29.91 in 10.0 mi Variable 4.6 mph - N/A   Clear
1:53 PM 79.0 °F - 55.9 °F 45% 29.89 in 10.0 mi NNW 8.1 mph - N/A   Clear
2:53 PM 80.1 °F 80.2 °F 55.9 °F 43% 29.87 in 10.0 mi North 6.9 mph - N/A   Clear
3:53 PM 81.0 °F 80.7 °F 55.0 °F 41% 29.86 in 10.0 mi NNE 6.9 mph - N/A   Clear
4:53 PM 79.0 °F - 55.9 °F 45% 29.86 in 10.0 mi North 9.2 mph - N/A   Clear
5:53 PM 75.0 °F - 55.0 °F 50% 29.86 in 10.0 mi North 10.4 mph - N/A   Clear
6:53 PM 69.1 °F - 54.0 °F 58% 29.87 in 10.0 mi North 8.1 mph - N/A   Clear
7:53 PM 64.0 °F - 54.0 °F 70% 29.88 in 10.0 mi North 6.9 mph - N/A   Clear
8:53 PM 63.0 °F - 55.0 °F 75% 29.88 in 10.0 mi North 4.6 mph - N/A   Clear
9:53 PM 61.0 °F - 54.0 °F 78% 29.88 in 10.0 mi North 5.8 mph - N/A   Clear
10:53 PM 59.0 °F - 53.1 °F 81% 29.87 in 10.0 mi NNW 3.5 mph - N/A   Partly Cloudy
11:53 PM 57.9 °F - 53.1 °F 84% 29.87 in 10.0 mi NNW 9.2 mph - N/A   Clear